Retour au catalogue

KUIPER-00453

ActifCommunicationsLEO
NORAD 68947·PAYLOAD·🇺🇸 United States

Lancé Apr 30, 2026 depuis Guiana Space Centre

Loading…

Prochains Passages (prochaines 24 heures)

TLE

FraisSource: CelesTrak SupGP

Époque: Sep 14, 2026, 20:31 UTC

1 68947C 26098AE  26257.85493056  .00006756  00000+0  88428-3 0  2574
2 68947  51.8997  11.5824 0002042 128.6027 200.0031 14.79927424    16

Suivez KUIPER-00453 en temps réel avec AllMySat

Download on the App Store